sat.trackr.live / text

‹ back to catalog

EXPRESS-MD2

NORAD 38745 · 2012-044B

PAYLOAD ACTIVE UNKNOWN

§ Identity

Operator
Country
CIS
Launch date
2012-08-06
Launch site
TYMSC
Launch vehicle
Mass (kg)
RCS (m²)
5.58

External: N2YO · Heavens-Above · Gunter

§ Orbital elements

Epoch: 2026-09-20T01:07:14.020320Z

Period
115.17 min
Inclination
49.8219°
Eccentricity
0.1538169
Mean motion
12.50319549 rev/d
Perigee alt
257.0 km
Apogee alt
2,669.3 km
Semi-major
7,841.3 km
B*
6.3584e-4
RAAN
115.5466°
Arg perigee
70.3374°
Mean anomaly
305.6601°
Rev number
57,264

§ Raw data

EXPRESS-MD21 38745U 12044B   26263.04669005  .00037132  57836-5  63584-3 0  99962 38745  49.8219 115.5466 1538169  70.3374 305.6601 12.50319549572641

JSON: /api/v1/satellites/38745 · /tle

For live sub-satellite position, see the globe view (requires WebGL).

§ Visibility from observer

Set your observer location to see the next 7 days of passes ≥ 10°. The values pass through the URL so the page stays shareable.

No JS? Fill the form by hand. The geolocation button needs JavaScript.